Location: DARK SKY Beskydy - Park tmavé oblohy, www.darkskybeskydy.cz
(49.4926°N, 18.5016°E)
Time: 10:27:59
(UTC+01:00)

Vanguard 1 - Visible Passes

Search period start: 13 November 2025 00:00
Search period end: 23 November 2025 00:00
Orbit: 649 x 3822 km, 34.3° (Epoch: 11 November)

Date Brightness Start Highest point End Pass type
(mag) Time Alt. Az. Time Alt. Az. Time Alt. Az.
13 Nov 13.3 17:35:29 10° SW 17:56:16 49° SSE 18:11:27 20° ESE visible
13 Nov 12.8 19:58:50 10° WSW 20:20:33 50° SSW 20:24:01 47° SSE visible
13 Nov 13.4 22:25:22 10° W 22:36:35 27° WSW 22:36:35 27° WSW visible
14 Nov 13.2 17:54:27 10° WSW 18:15:34 51° S 18:29:35 24° ESE visible
14 Nov 12.8 20:18:21 10° W 20:39:45 47° SSW 20:42:09 46° S visible
14 Nov 13.6 22:45:33 10° W 22:54:42 23° WSW 22:54:42 23° WSW visible
15 Nov 13.1 18:13:35 10° WSW 18:34:54 52° S 18:47:44 27° ESE visible
15 Nov 12.9 20:37:58 10° W 20:58:51 44° SSW 21:00:17 44° SSW visible
15 Nov 13.8 23:06:07 10° W 23:12:51 18° WSW 23:12:51 18° WSW visible
16 Nov 13.5 16:11:20 10° SW 16:29:52 45° SSE 16:50:25 10° E visible
16 Nov 13.1 18:32:49 10° WSW 18:54:15 52° S 19:05:54 30° SE visible
16 Nov 13.1 20:57:41 10° W 21:17:51 40° SSW 21:18:28 40° SSW visible
16 Nov 13.9 23:27:23 10° W 23:31:02 14° WSW 23:31:02 14° WSW visible
17 Nov 13.4 16:30:04 10° SW 16:49:02 48° SSE 17:09:57 10° E visible
17 Nov 13.1 18:52:10 10° WSW 19:13:33 51° S 19:24:07 33° SE visible
17 Nov 13.2 21:17:32 10° W 21:36:41 35° SW 21:36:41 35° SW visible
18 Nov 13.4 16:48:59 10° WSW 17:08:17 51° S 17:29:24 10° ESE visible
18 Nov 13.1 19:11:36 10° W 19:32:50 49° SSW 19:42:23 34° SSE visible
18 Nov 13.4 21:37:35 10° W 21:54:58 30° SW 21:54:58 30° SW visible
19 Nov 13.3 17:08:01 10° WSW 17:27:35 52° S 17:48:08 11° ESE visible
19 Nov 13.1 19:31:07 10° W 19:52:00 46° SSW 20:00:43 34° SSE visible
19 Nov 13.6 21:57:57 10° W 22:13:18 25° SW 22:13:18 25° SW visible
20 Nov 13.3 17:27:11 10° WSW 17:46:55 52° S 18:06:31 13° ESE visible
20 Nov 13.2 19:50:44 10° W 20:11:06 42° SSW 20:19:07 33° S visible
20 Nov 13.7 22:18:52 10° W 22:31:43 20° SW 22:31:43 20° SW visible
21 Nov 13.3 17:46:27 10° WSW 18:06:16 52° S 18:25:01 15° ESE visible
21 Nov 13.3 20:10:28 10° W 20:30:04 38° SSW 20:37:38 31° S visible
21 Nov 13.9 22:40:51 10° W 22:50:13 15° WSW 22:50:13 15° WSW visible
22 Nov 13.4 18:05:48 10° WSW 18:25:34 50° SSW 18:43:37 16° SE visible
22 Nov 13.4 20:30:24 10° W 20:48:55 33° SW 20:56:14 27° S visible
22 Nov 14.1 23:08:01 10° WSW 23:08:51 10° WSW 23:08:51 10° WSW visible
